This demonstration page uses our WeatherBlox Daily Observations layout. Learn more.

Left ArrowRight Arrow

41.86663, -103.66717

Hourly Observations for January 12, 2021

Temp ( °F °C ) Dew Point ( °F °C ) Humidity (%) Winds ( mph kmh ) Pressure ( in mb ) Visibility ( mi km ) Precip ( " mm )
12:53 am 00:53 Clear 23 -5 11 -11.7 60 60 N 7 11 30.19 1022 10 16 0.00 0.00
1:53 am 01:53 Clear 21 -6.1 10 -12.2 62 62 NNW 7 11 30.20 1023 10 16 0.00 0.00
2:53 am 02:53 Clear 23 -5 10 -12.2 57 57 NNW 6 9 30.19 1022 10 16 0.00 0.00
3:53 am 03:53 Clear 20 -6.7 11 -11.7 68 68 NW 8 13 30.21 1023 10 16 0.00 0.00
4:53 am 04:53 Clear 21 -6.1 10 -12.2 62 62 NW 7 11 30.23 1024 10 16 0.00 0.00
5:53 am 05:53 Clear 21 -6.1 11 -11.7 65 65 WNW 7 11 30.24 1024 10 16 0.00 0.00
6:53 am 06:53 Clear 22 -5.6 12 -11.1 66 66 NNW 8 13 30.24 1024 10 16 0.00 0.00
7:53 am 07:53 Sunny 28 -2.2 14 -10 56 56 WNW 9 15 30.24 1024 10 16 0.00 0.00
8:53 am 08:53 Sunny 32 0 16 -8.9 52 52 NW 7 11 30.24 1024 10 16 0.00 0.00
9:53 am 09:53 Sunny 39 3.9 17 -8.3 41 41 NW 12 19 30.22 1023 10 16 0.00 0.00
10:53 am 10:53 Sunny 43 6.1 19 -7.2 38 38 NW 9 15 30.18 1022 10 16 0.00 0.00
11:53 am 11:53 Sunny 50 10 19 -7.2 29 29 WNW 10 17 30.13 1020 10 16 0.00 0.00
12:53 pm 12:53 Sunny 49 9.4 20 -6.7 32 32 NW 8 13 30.11 1020 10 16 0.00 0.00
1:53 pm 13:53 Sunny 53 11.7 17 -8.3 24 24 W 12 19 30.07 1018 10 16 0.00 0.00
2:53 pm 14:53 Sunny 52 11.1 18 -7.8 26 26 W 15 24 30.05 1018 10 16 0.00 0.00
3:53 pm 15:53 Sunny 49 9.4 17 -8.3 28 28 W 13 20 30.06 1018 10 16 0.00 0.00
4:53 pm 16:53 Clear 43 6.1 17 -8.3 35 35 W 6 9 30.04 1017 10 16 0.00 0.00
5:53 pm 17:53 Clear 42 5.6 18 -7.8 38 38 WNW 6 9 30.04 1017 10 16 0.00 0.00
6:53 pm 18:53 Clear 38 3.3 18 -7.8 44 44 Calm 30.05 1018 10 16 0.00 0.00
7:53 pm 19:53 Clear 39 3.9 19 -7.2 45 45 W 8 13 30.03 1017 10 16 0.00 0.00
8:53 pm 20:53 Clear 46 7.8 16 -8.9 30 30 W 13 20 29.98 1015 10 16 0.00 0.00
9:53 pm 21:53 Clear 42 5.6 17 -8.3 36 36 W 10 17 29.96 1015 10 16 0.00 0.00
10:53 pm 22:53 Clear 46 7.8 16 -8.9 30 30 W 16 26 29.93 1014 10 16 0.00 0.00
11:53 pm 23:53 Clear 47 8.3 16 -8.9 29 29 WNW 10 17 29.91 1013 10 16 0.00 0.00

Powered by AerisWeather